CAPE
7 8 9 14 23 24 10 15 21 15 15 23 17 15 11 8 5 2 2 1 1 5 5 4 18 1 7 0 0 0 0 0 0 0 0 0 0 0 0 0 0 0 0 0 0 0 0
10 12 11 7 21 22 24 26 13 21 20 24 26 12 9 7 3 5 2 1 3 4 4 5 14 4 0 0 0 0 0 0 0 0 0 0 0 0 0 0 0 0 0 0 0 0 0
9 13 7 6 18 17 23 25 26 20 19 16 16 15 8 4 4 3 10 0 11 6 4 8 10 12 0 0 0 0 0 0 0 0 0 0 0 0 0 0 0 0 0 0 0 0 0
8 14 10 8 16 13 11 13 16 19 23 12 16 9 9 2 2 3 1 5 2 4 4 7 13 6 0 0 0 0 0 0 0 0 0 4 0 0 0 0 0 0 0 0 0 0 0
1 10 10 6 3 6 17 21 14 11 12 12 12 8 5 2 2 4 0 6 2 6 5 9 10 1 0 0 0 0 0 0 0 0 0 0 0 0 0 0 0 0 0 0 0 0 0
6 11 11 3 7 3 1 10 8 4 6 9 7 5 5 5 4 0 0 11 4 12 12 25 11 0 0 0 0 0 0 0 0 0 0 0 0 0 0 0 0 0 0 0 0 0 0
12 18 19 19 4 3 2 3 2 4 0 9 5 1 1 6 2 0 0 7 0 1 7 0 0 0 0 0 0 0 0 0 0 0 0 0 0 0 0 0 0 0 0 0 0 0 0
10 11 3 12 6 10 1 2 2 4 3 7 3 2 2 1 2 0 1 1 0 0 0 0 0 0 0 0 0 0 0 0 0 0 0 0 0 0 0 0 0 0 0 0 0 0 0
6 11 11 12 12 7 7 1 3 5 5 6 1 7 2 1 1 0 0 0 0 0 0 0 0 0 0 0 0 0 0 0 0 0 0 0 0 0 0 0 0 0 0 0 0 0 0
9 16 7 12 7 4 4 6 9 7 3 2 4 7 6 1 0 0 0 0 0 0 0 0 0 0 0 0 0 0 0 0 0 0 0 0 0 0 0 0 0 0 0 0 0 0 0
12 17 9 3 7 3 3 9 6 8 3 0 1 5 7 1 1 0 0 0 0 0 0 0 0 0 0 0 0 0 0 0 0 0 0 0 0 0 0 0 0 0 0 0 0 0 0
10 0 7 9 1 9 4 7 6 6 7 3 0 3 1 0 0 0 0 0 0 0 0 0 0 0 0 0 0 0 0 0 0 0 0 0 0 0 0 0 0 0 0 0 0 0 0
4 8 8 7 8 7 6 4 4 4 3 2 0 1 1 0 0 0 3 13 0 0 0 0 0 0 0 0 0 0 0 0 0 0 0 0 0 0 0 0 0 0 0 0 0 0 0
10 7 7 7 6 4 4 3 4 3 2 0 0 0 0 0 0 0 17 17 0 0 0 0 0 0 0 0 0 0 0 0 0 0 0 0 0 0 0 0 0 0 0 0 0 0 0
5 6 6 5 3 3 3 4 2 0 0 0 0 0 0 0 0 0 5 0 0 0 0 0 0 0 0 0 0 0 0 0 0 0 0 0 0 0 0 0 0 0 0 0 0 0 0
6 8 4 4 2 1 3 1 0 0 0 0 0 0 0 0 0 4 1 0 0 0 0 0 0 0 0 0 0 0 0 0 0 0 0 0 0 0 0 0 0 0 0 0 0 0 0
5 4 3 2 2 1 2 0 0 0 0 0 0 0 0 0 1 11 2 1 0 0 0 0 0 0 0 0 0 0 0 0 0 0 0 0 0 0 0 0 0 0 0 0 0 0 0
4 3 5 3 2 1 1 0 0 0 0 0 0 0 0 0 1 1 6 0 0 0 0 0 0 0 0 0 0 0 0 0 0 0 0 0 0 0 0 0 0 0 0 0 0 0 0
5 4 1 4 2 1 0 0 0 0 0 0 0 0 0 0 0 0 0 0 0 0 0 0 0 0 0 0 0 0 0 0 0 0 0 0 0 0 0 0 0 0 0 0 0 0 0
5 3 4 5 3 3 1 0 0 0 0 0 0 0 0 0 0 0 0 0 0 0 0 0 0 0 0 0 0 0 0 0 0 0 0 0 0 0 0 0 0 0 0 0 0 0 0
0 4 7 6 4 4 3 0 0 0 0 0 0 0 0 0 0 0 0 0 0 0 0 0 0 0 0 0 0 0 0 0 0 0 0 0 0 0 0 0 0 0 0 0 0 0 0
3 6 8 5 6 4 2 1 0 0 0 0 0 0 0 0 0 0 0 0 0 0 0 0 0 0 0 0 0 0 0 0 0 0 0 0 0 0 0 0 0 0 0 0 0 0 0
4 6 6 6 5 4 5 1 0 0 0 0 0 0 0 0 0 0 0 0 0 0 0 0 0 0 0 0 0 0 0 0 0 0 0 0 0 0 0 0 0 0 0 0 0 0 0
11 7 8 7 5 4 5 2 2 4 0 0 0 0 0 0 0 0 0 0 0 0 0 0 0 0 0 0 0 0 0 0 0 0 0 0 0 0 0 0 0 0 0 0 0 0 0
10 10 9 7 6 7 6 4 2 3 1 0 0 0 0 0 0 0 0 0 0 0 0 0 0 0 0 0 0 0 0 0 0 0 0 0 0 0 0 0 0 0 0 0 0 0 0
1 1 7 7 6 7 6 5 3 4 3 0 0 0 0 0 0 0 0 0 0 0 0 0 0 0 0 0 0 0 0 0 0 0 0 0 0 0 0 0 0 0 0 0 0 0 0
10 6 1 5 5 7 5 6 3 12 5 0 0 0 0 0 0 0 0 0 0 0 0 0 0 0 0 0 0 0 0 0 0 0 0 0 0 0 0 0 0 0 0 0 0 0 0
7 9 10 5 5 10 5 7 5 13 16 3 0 0 0 0 0 0 0 0 0 0 0 0 0 0 0 0 0 0 0 0 0 0 0 0 0 0 0 0 0 0 0 0 0 0 0
3 6 6 4 12 4 8 7 7 8 16 4 0 0 0 0 0 0 0 0 0 0 0 0 0 0 0 0 0 0 0 0 0 0 0 0 0 0 0 0 0 0 0 0 0 0 0
CIN
-1 -1 -1 -1 0 -1 -1 0 0 0 0 0 0 0 -2 -1 0 0 0 0 -1 -4 -5 -8 0 -6 -2 0 0 0 0 0 0 0 0 0 0 0 0 0 0 0 0 0 0 0 0
0 -1 0 -1 0 0 0 0 -1 -1 0 0 0 -1 -1 -1 -1 0 0 -1 -1 -4 -6 -6 -1 -5 0 0 0 0 0 0 0 0 0 0 0 0 0 0 0 0 0 0 0 0 0
0 0 -1 0 -1 0 0 0 0 -1 0 0 0 0 -1 0 -1 0 0 0 0 -2 -6 -4 -3 -3 0 0 0 0 0 0 0 0 0 0 0 0 0 0 0 0 0 0 0 0 0
0 -1 0 0 -1 0 -1 0 0 0 0 0 0 0 -1 -1 0 0 0 0 -1 -2 -5 -2 -2 -5 0 0 0 0 0 0 0 0 0 -91 0 0 0 0 0 0 0 0 0 0 0
-1 0 0 0 -1 -1 -1 0 0 0 0 0 0 0 0 -1 0 0 0 -1 -4 -4 -5 -3 -1 -1 0 0 0 0 0 0 0 0 0 0 0 0 0 0 0 0 0 0 0 0 0
-1 -1 -1 -1 -1 -1 0 0 0 0 -1 -1 0 0 0 0 0 0 0 -1 -5 -3 -2 -2 -3 0 0 0 0 0 0 0 0 0 0 0 0 0 0 0 0 0 0 0 0 0 0
0 -1 -1 0 -1 0 -1 0 -1 0 -1 -1 -3 -2 -1 0 0 0 0 0 0 -1 0 0 0 0 0 0 0 0 0 0 0 0 0 0 0 0 0 0 0 0 0 0 0 0 0
0 0 0 -1 -1 -1 0 -2 0 -1 0 0 0 0 -2 -1 0 0 0 0 0 0 0 0 0 0 0 0 0 0 0 0 0 0 0 0 0 0 0 0 0 0 0 0 0 0 0
0 0 -1 0 0 -1 0 -1 0 0 0 0 0 -1 -2 -2 0 0 0 0 0 0 0 0 0 0 0 0 0 0 0 0 0 0 0 0 0 0 0 0 0 0 0 0 0 0 0
-1 -1 0 -1 0 -1 -1 0 0 0 0 0 -1 0 -1 0 0 0 0 0 0 0 0 0 0 0 0 0 0 0 0 0 0 0 0 0 0 0 0 0 0 0 0 0 0 0 0
0 0 -1 -1 0 0 0 0 0 0 0 0 0 -2 -3 0 0 0 0 0 0 0 0 0 0 0 0 0 0 0 0 0 0 0 0 0 0 0 0 0 0 0 0 0 0 0 0
0 -1 -1 0 0 0 0 0 -1 0 0 0 0 -1 0 0 0 0 0 0 0 0 0 0 0 0 0 0 0 0 0 0 0 0 0 0 0 0 0 0 0 0 0 0 0 0 0
-1 -1 -1 -1 -1 -1 0 -1 0 -1 0 0 0 0 0 0 0 0 -33 -40 0 0 0 0 0 0 0 0 0 0 0 0 0 0 0 0 0 0 0 0 0 0 0 0 0 0 0
0 0 -1 -1 0 -1 0 -1 0 0 0 0 0 0 0 0 0 0 -23 -7 0 0 0 0 0 0 0 0 0 0 0 0 0 0 0 0 0 0 0 0 0 0 0 0 0 0 0
0 0 -1 0 0 -1 0 0 0 0 0 0 0 0 0 0 0 0 -9 0 0 0 0 0 0 0 0 0 0 0 0 0 0 0 0 0 0 0 0 0 0 0 0 0 0 0 0
-1 -1 -1 -1 0 -1 0 0 0 0 0 0 0 0 0 0 0 -7 -2 0 0 0 0 0 0 0 0 0 0 0 0 0 0 0 0 0 0 0 0 0 0 0 0 0 0 0 0
-1 -1 0 -1 0 0 0 0 0 0 0 0 0 0 0 0 -15 -4 0 -1 0 0 0 0 0 0 0 0 0 0 0 0 0 0 0 0 0 0 0 0 0 0 0 0 0 0 0
0 0 0 -1 -1 0 0 0 0 0 0 0 0 0 0 0 -1 -2 -1 0 0 0 0 0 0 0 0 0 0 0 0 0 0 0 0 0 0 0 0 0 0 0 0 0 0 0 0
0 0 -1 0 0 0 0 0 0 0 0 0 0 0 0 0 0 0 0 0 0 0 0 0 0 0 0 0 0 0 0 0 0 0 0 0 0 0 0 0 0 0 0 0 0 0 0
-1 0 -1 -1 -1 0 0 -1 0 0 0 0 0 0 0 0 0 0 0 0 0 0 0 0 0 0 0 0 0 0 0 0 0 0 0 0 0 0 0 0 0 0 0 0 0 0 0
-1 -1 -1 -1 -1 0 0 -1 0 0 0 0 0 0 0 0 0 0 0 0 0 0 0 0 0 0 0 0 0 0 0 0 0 0 0 0 0 0 0 0 0 0 0 0 0 0 0
0 -1 0 0 -1 -1 0 0 0 0 0 0 0 0 0 0 0 0 0 0 0 0 0 0 0 0 0 0 0 0 0 0 0 0 0 0 0 0 0 0 0 0 0 0 0 0 0
0 -1 0 -1 -1 -1 0 0 0 0 0 0 0 0 0 0 0 0 0 0 0 0 0 0 0 0 0 0 0 0 0 0 0 0 0 0 0 0 0 0 0 0 0 0 0 0 0
-1 -1 -1 -1 -1 -1 0 0 0 0 0 0 0 0 0 0 0 0 0 0 0 0 0 0 0 0 0 0 0 0 0 0 0 0 0 0 0 0 0 0 0 0 0 0 0 0 0
0 0 -1 -1 -1 0 -1 0 0 0 -3 0 0 0 0 0 0 0 0 0 0 0 0 0 0 0 0 0 0 0 0 0 0 0 0 0 0 0 0 0 0 0 0 0 0 0 0
-1 -2 0 -1 -1 0 -1 0 -1 0 0 0 0 0 0 0 0 0 0 0 0 0 0 0 0 0 0 0 0 0 0 0 0 0 0 0 0 0 0 0 0 0 0 0 0 0 0
0 0 -1 0 0 0 0 -1 0 0 0 0 0 0 0 0 0 0 0 0 0 0 0 0 0 0 0 0 0 0 0 0 0 0 0 0 0 0 0 0 0 0 0 0 0 0 0
-1 0 -1 0 0 -1 0 0 -1 0 -1 -4 0 0 0 0 0 0 0 0 0 0 0 0 0 0 0 0 0 0 0 0 0 0 0 0 0 0 0 0 0 0 0 0 0 0 0
-1 -1 -1 0 0 0 -1 0 -1 0 0 -11 0 0 0 0 0 0 0 0 0 0 0 0 0 0 0 0 0 0 0 0 0 0 0 0 0 0 0 0 0 0 0 0 0 0 0
Wind_Speed
33 34 35 34 34 34 33 32 32 32 31 30 29 28 28 27 28 26 25 25 24 24 20 15 11 9 14 21 23 17 16 7 8 9 11 12 14 17 20 21 19 19 17 13 7 4 3
32 33 34 33 36 34 34 33 32 32 31 30 29 28 28 28 27 27 26 25 24 22 18 12 9 8 18 22 19 18 8 6 9 9 11 12 17 16 19 20 21 17 11 8 8 6 9
29 30 33 34 36 36 35 34 33 32 31 30 29 28 28 28 27 26 26 26 25 22 15 9 8 13 20 23 15 13 3 5 8 9 12 14 15 18 16 18 15 12 14 12 14 12 9
27 29 33 34 36 36 34 34 32 31 31 30 29 28 28 28 27 26 25 26 21 15 11 7 6 15 22 20 19 11 9 9 9 13 15 14 14 20 18 14 16 20 19 22 22 16 15
28 29 32 34 33 36 34 31 32 30 30 29 29 29 29 28 26 24 23 18 14 11 9 7 12 17 22 18 16 13 10 8 7 12 15 15 17 20 21 23 23 26 27 25 21 19 18
29 27 28 33 31 36 35 32 33 33 29 29 29 30 29 27 25 23 20 13 11 8 10 13 17 18 23 20 16 13 12 5 11 8 12 14 19 23 24 26 28 28 26 26 25 23 17
30 28 25 32 34 36 35 35 34 33 33 32 29 29 28 26 23 20 13 8 13 16 18 15 16 18 17 16 10 12 10 7 9 10 10 16 21 26 28 25 24 24 23 25 23 18 20
32 27 24 27 38 37 35 36 35 34 33 32 32 30 28 25 22 19 15 13 18 20 22 32 24 23 19 14 11 9 6 10 9 11 13 16 18 26 26 28 28 26 26 25 20 20 20
32 30 27 25 31 37 36 32 35 34 35 33 32 30 27 23 19 17 13 14 13 18 21 20 20 20 18 14 13 7 10 13 12 12 13 16 28 24 28 30 31 27 29 26 25 18 17
32 31 30 27 29 38 35 34 33 33 32 33 32 29 23 17 14 15 15 21 23 21 23 22 19 22 18 13 17 12 11 12 15 11 18 28 27 25 30 35 31 37 24 20 19 22 32
32 32 32 28 25 37 36 34 33 33 31 29 30 27 17 10 14 14 14 19 17 18 24 17 17 16 14 13 10 15 15 18 13 16 17 23 22 24 28 35 28 35 21 20 21 24 25
32 33 33 30 25 27 38 35 33 33 31 29 28 24 15 10 12 16 19 16 9 20 26 18 15 17 12 18 17 13 14 18 17 18 24 24 21 25 27 27 25 19 18 19 20 24 36
34 34 34 33 29 19 31 32 33 33 30 23 24 21 14 11 12 17 13 8 16 26 19 20 18 15 18 18 18 15 12 14 16 18 21 24 27 22 21 22 20 20 19 26 30 33 36
36 37 36 36 34 25 14 32 33 33 31 26 10 17 14 13 14 16 9 14 27 23 23 19 17 12 18 19 21 19 15 16 24 21 21 22 28 24 22 24 25 24 24 27 33 33 31
35 36 38 38 39 33 15 21 33 33 30 26 18 17 17 14 13 11 11 15 25 22 22 24 18 16 23 18 20 21 19 20 22 21 22 20 27 22 23 23 20 28 33 26 28 27 29
35 37 38 40 43 43 39 24 26 33 31 24 17 17 19 17 10 10 13 23 21 19 21 22 26 22 22 21 21 19 20 23 24 27 23 22 24 24 24 23 24 25 24 30 30 35 37
35 37 39 40 42 43 43 40 36 32 29 21 18 18 19 15 12 13 17 22 21 20 20 22 23 26 25 22 24 23 23 25 24 25 24 22 23 23 22 28 29 25 27 28 28 31 35
34 37 40 40 43 43 43 42 40 38 30 22 19 19 18 16 16 18 22 21 20 22 21 25 24 25 25 26 28 29 29 24 21 24 24 25 23 27 26 23 25 27 29 28 32 32 34
35 37 38 41 43 44 43 42 41 39 35 21 18 17 16 16 19 22 23 24 24 24 25 24 26 24 25 28 30 32 30 26 23 24 23 23 27 30 29 30 28 30 28 28 29 29 35
35 37 39 41 42 43 44 43 42 40 34 20 19 17 16 16 19 22 24 26 26 22 25 24 26 23 24 31 30 30 33 29 26 25 24 23 29 32 36 29 26 31 28 27 28 34 35
34 36 38 40 42 43 44 44 43 41 34 18 20 17 18 19 19 23 24 25 26 26 23 23 26 27 26 31 32 34 30 29 26 27 25 23 30 28 27 27 25 25 27 28 31 31 33
33 35 37 39 41 42 43 44 44 43 32 21 19 18 20 19 23 25 24 27 30 30 27 28 30 28 26 30 28 30 27 29 30 26 29 28 29 27 28 25 25 26 24 23 25 25 26
31 33 36 38 39 40 41 42 42 41 33 23 22 20 19 21 23 24 25 27 29 26 27 28 29 28 30 29 26 25 23 22 23 26 27 28 25 27 31 26 27 34 29 27 25 24 24
33 35 36 37 38 39 40 40 40 38 32 25 24 20 21 21 24 26 29 30 32 31 32 28 25 26 22 11 10 12 13 15 18 20 20 21 23 25 26 22 33 26 21 20 18 20 21
32 34 35 36 37 38 39 39 37 34 30 24 26 23 23 25 26 27 31 31 30 29 29 29 26 23 11 18 21 22 22 22 21 19 19 20 19 22 24 27 25 23 19 17 20 22 17
32 34 35 36 36 37 37 37 35 32 31 27 25 24 23 26 26 27 30 28 30 29 29 27 23 15 20 23 22 28 28 24 24 21 18 16 17 21 24 30 33 25 16 14 16 23 11
33 33 33 35 35 36 37 36 34 33 31 27 23 26 24 26 26 26 28 28 27 25 26 25 22 21 22 25 27 28 27 23 24 22 22 21 23 26 25 26 24 17 13 13 21 19 5
33 33 34 34 35 36 35 35 34 34 32 27 24 27 24 26 27 25 24 25 26 24 24 22 21 24 24 27 27 26 25 23 23 22 22 23 23 23 22 25 27 11 10 17 14 5 3
33 34 34 34 35 35 35 35 32 34 32 24 24 24 24 25 24 20 20 20 22 24 23 22 23 23 23 24 23 22 25 21 22 26 21 23 21 19 20 20 13 9 12 8 7 4 6
Wind_Direction
16 11 7 7 0 348 353 345 333 324 316 310 306 301 300 304 295 293 297 296 292 282 278 278 275 273 266 261 262 285 283 185 230 234 246 246 245 251 250 246 242 248 250 257 232 198 178
17 13 8 10 355 352 350 346 339 324 317 312 302 303 299 300 297 302 287 298 290 284 279 281 274 264 264 260 272 280 308 191 232 226 243 244 252 253 251 245 239 245 238 216 222 204 241
19 15 9 8 350 348 344 330 331 328 318 309 300 299 298 297 299 303 292 289 283 281 284 283 273 264 261 256 281 279 346 265 229 233 241 246 263 246 258 243 236 220 234 234 231 244 236
20 16 8 5 357 343 326 329 320 316 316 312 305 297 297 296 299 302 305 304 294 289 288 284 280 269 263 270 271 277 279 279 261 253 254 245 260 249 253 255 238 238 236 234 240 248 250
20 18 10 1 6 332 324 317 320 311 308 306 304 304 299 298 299 299 299 326 302 296 285 283 274 271 266 275 265 270 276 263 255 255 256 246 257 252 250 245 236 238 236 238 239 262 256
23 23 19 5 11 335 327 319 318 324 306 305 301 300 301 299 299 292 293 332 307 304 274 270 275 272 263 264 264 261 270 247 251 235 253 243 252 246 246 239 234 236 238 240 243 254 264
25 26 25 10 1 338 324 325 322 317 319 312 299 297 296 295 296 294 300 350 293 283 265 270 277 270 280 269 269 257 258 253 247 232 234 244 242 237 239 243 248 242 240 240 249 257 258
26 27 27 21 347 346 329 329 322 318 313 308 308 298 294 294 293 288 289 293 275 282 273 250 265 258 267 267 265 252 218 257 221 196 247 247 223 245 244 243 244 244 239 244 251 261 260
27 28 28 27 16 331 326 316 322 317 316 310 306 303 303 299 297 287 282 279 310 298 278 277 262 265 267 267 268 223 232 262 240 229 236 239 251 244 242 241 240 245 241 242 251 259 272
28 29 29 29 23 343 326 319 316 315 308 310 313 307 328 324 308 289 278 268 279 284 276 272 268 265 262 269 269 251 237 258 257 223 249 252 248 245 242 241 241 241 250 249 251 254 257
27 28 29 30 30 3 328 318 315 314 309 305 311 313 344 3 318 287 293 280 294 286 270 281 266 274 257 258 278 252 244 258 256 256 248 254 251 249 245 241 243 245 251 252 258 257 260
27 27 28 30 31 19 334 323 315 314 310 312 323 321 5 22 334 289 285 280 307 272 265 283 276 259 250 258 266 257 241 259 266 260 255 255 260 251 250 248 246 246 248 257 258 261 255
25 25 26 28 31 26 325 322 320 316 309 295 322 345 21 8 337 292 305 287 270 259 284 280 280 267 251 256 259 256 216 219 253 254 254 254 255 260 254 250 243 239 232 247 253 252 256
23 22 22 23 28 32 358 326 324 319 313 298 232 36 45 347 318 303 315 273 260 276 272 291 285 273 261 257 258 257 240 223 251 259 258 252 252 251 254 250 245 236 235 250 253 257 261
24 22 19 19 20 26 9 330 327 324 318 313 349 7 14 8 330 331 287 292 268 282 283 276 285 275 261 261 263 256 249 243 248 253 257 255 256 260 257 255 247 243 242 255 266 271 266
22 19 17 13 9 7 343 330 327 329 325 335 353 342 339 339 6 319 297 281 287 292 289 278 269 272 268 258 261 255 251 261 252 251 260 266 263 262 256 258 256 254 249 251 258 260 262
19 17 12 8 5 360 352 341 335 330 323 19 5 343 333 348 346 303 291 291 298 293 293 286 276 273 272 268 261 260 265 266 259 253 253 261 265 268 259 253 252 253 254 256 262 263 266
18 14 9 7 360 352 347 343 340 337 328 30 17 346 338 333 313 301 288 294 303 297 294 285 280 281 273 271 262 260 262 267 267 259 251 255 266 262 262 265 261 260 258 257 257 262 265
15 11 10 5 359 353 349 343 341 340 346 28 30 15 4 341 314 299 296 294 293 292 289 287 281 279 274 273 271 262 263 267 269 263 259 252 258 261 265 264 264 259 259 261 264 268 266
13 10 8 4 1 356 350 346 341 338 345 24 20 19 9 345 325 311 300 292 290 296 290 287 284 286 280 270 269 272 261 264 267 266 264 261 256 259 259 268 267 260 261 262 264 265 267
11 7 5 3 1 357 352 348 345 340 344 19 11 13 0 347 330 313 304 299 292 291 292 291 285 279 278 274 271 268 269 265 266 263 262 263 259 260 267 269 271 270 265 263 264 267 268
6 6 4 2 359 357 355 353 350 347 353 13 6 1 352 340 329 318 309 300 290 288 287 287 281 283 278 275 277 270 270 266 266 264 259 262 261 258 263 272 271 268 271 269 270 271 274
5 4 1 359 358 358 357 356 355 358 6 13 6 0 351 339 330 322 314 305 299 297 291 287 286 283 277 277 282 282 280 279 277 267 260 257 254 258 261 267 269 267 267 270 271 274 274
1 358 358 358 357 357 357 357 357 360 10 12 7 3 354 339 330 320 312 307 298 294 287 290 290 283 287 298 307 304 298 286 282 273 267 258 253 262 263 264 264 275 277 276 274 280 284
358 356 357 358 357 356 356 356 358 359 5 5 358 355 350 338 332 322 314 309 303 296 289 287 287 287 277 283 277 274 275 276 278 280 265 260 259 262 262 262 276 279 277 272 274 281 288
358 357 356 356 357 356 356 355 357 360 359 359 358 353 346 337 333 329 317 312 303 296 287 286 290 279 279 274 273 265 264 267 268 269 273 263 266 268 268 268 268 279 280 285 289 276 281
357 356 357 356 356 356 355 354 355 355 354 358 355 351 345 335 334 330 316 308 304 300 291 286 282 267 276 269 265 264 264 269 263 261 259 259 265 265 268 272 279 285 278 287 275 281 246
355 356 355 356 356 356 355 354 354 351 353 357 354 353 345 337 334 331 323 308 300 295 291 290 276 271 268 263 264 265 267 266 266 266 265 263 263 265 269 270 272 278 283 284 298 298 287
354 354 355 355 355 355 354 353 355 353 353 358 350 354 354 342 335 336 329 322 310 297 288 285 279 276 270 265 267 269 265 270 266 261 272 264 268 269 275 277 284 283 297 318 319 334 318